#timestamp,LO_Frequency,Hit,StdDev 
1455249615.5,286047000.4,P
1455249635.4,286046998.8,N
1455249655.2,286046996.8,N
1455249675.0,286046996.5,N
1455249675.9,286046996.5,N
1455249695.8,286046997.4,N
1455249715.6,286047000.5,N
1455249735.4,286046999.7,N
1455249755.3,286047002.1,N
1455249775.1,286047001.7,N
1455249776.0,286047001.7,N
1455249795.8,286046999.4,N
1455249815.7,286046998.4,N
1455249835.5,286047000.9,N
1455249855.3,286046998.8,N
1455249875.1,286047000.5,N
1455249895.9,286046998.1,N
1455249915.7,286046996.5,N
1455249935.5,286046999.6,N
1455249955.4,286046995.8,N
1455249975.2,286046995.3,N
1455249995.0,286046997.3,N
1455249995.9,286046997.3,N
1455250015.8,286046996.5,N
1455250035.6,286046995.8,N
1455250055.4,286046994.4,N
1455250075.3,286046990.5,Y
1455250095.1,286046989.7,P
1455250096.0,286046989.7,N
1455250115.8,286046988.2,N
1455250135.7,286046983.8,Y
1455250155.5,286046992.2,P
1455250175.3,286046994.5,P
1455250195.2,286046996.0,P
1455250215.9,286046998.5,N
1455250235.7,286046998.2,N
1455250255.6,286046997.2,N
1455250275.4,286046998.0,N
1455250295.2,286046997.3,N
1455250315.1,286046996.0,N
1455250316.0,286046996.0,N
1455250335.8,286046994.3,N
1455250355.6,286046993.6,N
1455250375.4,286046995.7,N
1455250395.3,286046994.0,N
1455250415.1,286046995.5,N
1455250435.8,286046998.3,N
1455250455.7,286046998.1,N
1455250475.5,286047003.4,N
1455250495.3,286047004.2,N
1455250515.2,286047002.0,N
1455250535.9,286046999.1,N
1455250555.7,286046996.9,N
1455250575.6,286046999.3,N
1455250595.4,286046997.3,N
1455250615.2,286046997.7,N
1455250635.1,286046999.0,N
1455250636.0,286046999.0,N
1455250655.8,286046993.3,N
1455250675.6,286046995.0,N
1455250695.5,286046995.3,N
1455250715.3,286046997.9,N
1455250735.1,286046996.5,N
1455250755.8,286046995.2,N
1455250775.7,286046997.1,N
1455250795.5,286046998.4,N
1455250815.3,286046998.3,N
1455250835.2,286047002.4,N
1455250855.9,286047005.5,N
1455250875.7,286047006.1,N
1455250895.6,286047005.3,N
1455250915.4,286047006.3,N
1455250935.2,286047007.1,N
1455250955.1,286047012.0,Y
1455250956.0,286047012.0,P
1455250975.8,286047017.0,N
1455250995.6,286047014.9,N
1455251015.5,286047014.2,N
1455251035.3,286047013.6,N
1455251055.1,286047013.5,N
1455251075.9,286047011.6,N
1455251095.7,286047011.8,N
1455251115.5,286047012.9,N
1455251135.3,286047013.2,N
1455251155.2,286047015.5,Y
1455251175.0,286046998.3,P
1455251175.9,286046998.3,N
1455251195.8,286046996.9,N
1455251215.6,286046998.8,N
1455251235.4,286046997.0,N
1455251255.2,286047002.7,N
1455251275.1,286047007.6,N
1455251276.0,286047007.6,N
1455251295.8,286047006.1,N
1455251315.6,286047006.6,N
1455251335.5,286047012.2,N
1455251355.3,286047015.1,N
1455251375.1,286047008.3,N
1455251395.9,286047010.3,N
1455251415.7,286047008.1,N
1455251435.5,286047005.6,N
1455251455.4,286047002.3,N
1455251475.2,286046999.8,N
1455251495.0,286047000.9,N
1455251495.9,286047000.9,N
1455251515.8,286047002.7,N
1455251535.6,286047002.0,N
1455251555.4,286047001.2,N
1455251575.2,286046999.2,N
1455251595.1,286047001.2,N
1455251596.0,286047001.2,N
1455251615.8,286046998.4,N
1455251635.6,286046998.9,N
1455251655.5,286046998.6,N
1455251675.3,286046998.6,N
1455251695.1,286046994.9,N
1455251715.9,286046995.1,N
1455251735.7,286046993.6,N
1455251755.5,286046990.3,N
1455251775.4,286046994.5,N
1455251795.2,286046992.4,N
1455251815.0,286046990.8,N
1455251815.9,286046990.8,N
1455251835.8,286046988.5,N
1455251855.6,286046989.8,N
1455251875.4,286046988.7,N
1455251895.3,286046989.0,N
1455251915.1,286046987.7,N
1455251916.0,286046987.7,N
1455251935.8,286046989.7,N
1455251955.7,286046988.0,N
1455251975.5,286046985.5,N
1455251995.3,286046983.8,Y
1455252015.2,286046987.2,P
1455252035.9,286046986.1,P
1455252055.7,286046985.4,P
1455252075.6,286046987.3,Y
1455252095.4,286046995.3,P
1455252115.2,286046997.5,N
1455252135.1,286046993.7,N
1455252136.0,286046993.7,N
1455252155.8,286046993.8,N
1455252175.6,286046996.2,N
1455252195.4,286046993.6,N
1455252215.3,286046994.0,N
1455252235.1,286046993.2,N
1455252255.9,286046992.0,Y
1455252275.7,286047002.4,P
1455252295.5,286047003.9,N
1455252315.3,286047003.9,N
1455252335.2,286047005.6,N
1455252355.0,286047007.6,N
1455252355.9,286047007.6,N
1455252375.7,286047005.2,N
1455252395.6,286047005.6,N
1455252415.4,286047005.4,N
1455252435.2,286047000.1,N
1455252455.1,286046998.1,N
1455252456.0,286046998.1,N
1455252475.8,286047000.9,N
1455252495.6,286047002.7,N
1455252515.5,286047002.6,N
1455252535.3,286046997.1,N
1455252555.1,286046996.5,N
1455252575.9,286046997.2,N
1455252595.7,286046996.0,N
1455252615.5,286046992.9,N
1455252635.3,286046994.8,N
1455252655.2,286046993.6,N
1455252675.0,286046996.1,N
1455252675.9,286046996.1,N
1455252695.7,286046995.2,N
1455252715.6,286046996.1,N
1455252735.4,286046997.3,N
1455252755.2,286046995.2,N
1455252775.1,286046992.9,N
1455252776.0,286046992.9,N
1455252795.8,286046996.2,N
1455252815.6,286046994.9,N
1455252835.5,286046998.0,N
1455252855.3,286046993.8,N
1455252875.1,286046992.3,N
1455252895.9,286046992.6,N
1455252915.7,286046993.5,N
1455252935.5,286046996.4,N
1455252955.4,286046997.0,N
1455252975.2,286046994.9,N
1455252995.0,286046997.1,N
1455252995.9,286046997.1,N
1455253015.7,286046995.1,N
1455253035.6,286046996.2,N
1455253055.4,286046997.3,N
1455253075.2,286046997.2,N
1455253095.1,286046997.9,N
1455253096.0,286046997.9,N
1455253115.8,286046999.4,N
1455253135.6,286046995.9,N
1455253155.5,286046996.3,N
1455253175.3,286046996.0,N
1455253195.1,286046990.3,Y
1455249615.4,286046988.6,P
1455249635.3,286046989.9,N
1455249655.1,286046985.8,P
1455249675.8,286046987.4,Y
1455249695.7,286046997.9,P
1455249715.5,286046997.2,N
1455249735.3,286046996.7,N
1455249755.2,286046997.7,N
1455249775.9,286046996.7,N
1455249795.7,286046997.9,N
1455249815.6,286046994.7,N
1455249835.4,286046997.5,N
1455249855.2,286046995.7,N
1455249875.1,286046995.4,N
1455249876.0,286046995.4,N
1455249895.8,286046996.2,N
1455249915.6,286046996.1,N
1455249935.5,286046996.1,N
1455249955.3,286046996.6,N
1455249975.1,286046996.7,N
1455249995.9,286046997.6,N
1455250015.7,286046994.1,Y
1455250035.5,286046996.8,P
1455250055.4,286047000.6,N
1455250075.2,286047000.3,N
1455250095.0,286047000.7,N
1455250095.9,286047000.7,N
1455250115.8,286046997.5,N
1455250135.6,286046996.4,N
1455250155.4,286046995.1,N
1455250175.3,286046994.2,N
1455250195.1,286046994.6,N
1455250196.0,286046994.6,N
1455250215.8,286046992.2,Y
1455250235.7,286046998.0,P
1455250255.5,286046996.8,P
1455250275.3,286046997.9,P
1455250295.2,286046994.9,Y
1455250315.9,286047000.5,P
1455250335.7,286047000.2,N
1455250355.5,286047001.9,N
1455250375.4,286047001.5,N
1455250395.2,286047000.7,N
1455250415.0,286047000.6,N
1455250415.9,286047000.6,N
1455250435.8,286047001.4,N
1455250455.6,286047004.1,Y
1455250475.4,286047003.7,P
1455250495.3,286047001.9,N
1455250515.1,286047002.1,N
1455250535.8,286047002.1,N
1455250555.7,286047004.0,Y
1455250575.5,286046998.7,P
1455250595.3,286046997.0,N
1455250615.2,286046997.5,N
1455250635.0,286046993.4,Y
1455250635.9,286046993.4,P
1455250655.7,286046996.9,N
1455250675.6,286047002.7,N
1455250695.4,286047001.9,N
1455250715.2,286047000.3,N
1455250735.1,286046996.5,N
1455250736.0,286046996.5,N
1455250755.8,286046999.8,N
1455250775.6,286046999.7,N
1455250795.5,286047001.6,N
1455250815.3,286046999.3,N
1455250835.1,286046997.2,N
1455250855.9,286046994.1,N
1455250875.7,286046996.3,N
1455250895.5,286046996.6,N
1455250915.4,286046995.4,N
1455250935.2,286046998.8,N
1455250955.0,286046995.4,N
1455250955.9,286046995.4,N
1455250975.7,286046995.8,N
1455250995.6,286046996.5,N
1455251015.4,286046996.5,N
1455251035.2,286046996.6,N
1455251055.1,286046999.4,N
1455251056.0,286046999.4,N
1455251075.8,286046999.3,N
1455251095.6,286046996.5,N
1455251115.5,286047000.9,N
1455251135.3,286046996.5,N
1455251155.1,286047000.6,N
1455251175.9,286047001.6,N
1455251195.7,286046998.9,N
1455251215.5,286046998.3,N
1455251235.4,286046998.0,N
1455251255.2,286046997.7,N
1455251275.0,286046996.1,N
1455251275.9,286046996.1,N
1455251295.7,286046999.4,N
1455251315.6,286046993.7,Y
1455251335.4,286046996.7,P
1455251355.2,286046991.7,P
1455251375.1,286046995.9,N
1455251376.0,286046995.9,N
1455251395.8,286046994.2,N
1455251415.7,286046992.1,Y
1455251435.5,286046995.3,P
1455251455.3,286046995.0,P
1455251475.1,286047001.1,P
1455251495.9,286047000.8,N
1455251515.7,286047002.0,N
1455251535.5,286046999.9,N
1455251555.4,286047001.2,N
1455251575.2,286046998.3,N
1455251595.0,286047002.0,N
1455251595.9,286047002.0,N
1455251615.8,286047004.1,N
1455251635.6,286047002.7,N
1455251655.4,286046999.9,N
1455251675.3,286047001.6,N
1455251695.1,286047001.3,N
1455251696.0,286047001.3,N
1455251715.8,286046999.7,N
1455251735.7,286047002.4,N
1455251755.5,286047003.9,N
1455251775.3,286047003.2,N
1455251795.1,286047001.9,N
1455251815.9,286047003.0,N
1455251835.7,286047006.9,N
1455251855.5,286047008.2,N
1455251875.4,286047009.2,Y
1455251895.2,286047005.9,P
1455251915.0,286047007.6,P
1455251915.9,286047007.6,N
1455251935.8,286047007.0,N
1455251955.6,286047007.0,N
1455251975.4,286047007.9,Y
1455251995.3,286047002.6,P
1455252015.1,286047001.6,N
1455252035.8,286047002.3,N
1455252055.7,286047001.9,N
1455252075.5,286047002.3,N
1455252095.3,286047003.7,N
1455252115.2,286047006.5,Y
1455252135.0,286047004.4,P
1455252135.9,286047004.4,P
1455252155.7,286047002.1,N
1455252175.6,286047002.7,N
1455252195.4,286047002.0,N
1455252215.2,286047000.3,N
1455252235.1,286047005.6,Y
1455252236.0,286047005.6,P
1455252255.8,286047003.7,N
1455252275.6,286047001.7,N
1455252295.5,286047001.7,N
1455252315.3,286047002.0,N
1455252335.1,286047002.4,N
1455252355.9,286047001.2,N
1455252375.7,286047000.7,N
1455252395.5,286046996.5,N
1455252415.4,286046998.9,N
1455252435.2,286046998.4,N
1455252455.0,286047000.5,N
1455252455.9,286047000.5,N
1455252475.7,286047000.9,N
1455252495.6,286047000.1,N
1455252515.4,286047005.8,N
1455252535.2,286047003.7,N
1455252555.1,286047009.1,Y
1455252556.0,286047009.1,P
1455252575.8,286047006.9,N
1455252595.6,286047006.1,N
1455252615.5,286047008.3,N
1455252635.3,286047009.0,Y
1455252655.1,286047000.6,P
1455252675.9,286046999.1,N
1455252695.7,286046997.8,N
1455252715.5,286046995.4,N
1455252735.4,286046997.7,N
1455252755.2,286046999.0,N
1455252775.0,286046993.0,N
1455252775.9,286046993.0,N
1455252795.8,286046991.5,N
1455252815.6,286046989.8,N
1455252835.4,286046986.3,Y
1455252855.3,286046984.1,P
1455252875.1,286046981.3,N
1455252895.8,286046976.1,P
1455252915.7,286046972.9,Y
1455252935.5,286046989.7,P
1455252955.3,286046985.6,P
1455252975.2,286046988.1,P
1455252995.9,286046985.4,Y
1455253015.7,286046998.5,P
1455253035.6,286047000.6,N
1455253055.4,286046998.7,N
1455253075.2,286046998.0,N
1455253095.1,286046999.3,N
1455253096.0,286046999.3,N
1455253115.8,286046996.6,N
1455253135.6,286046998.7,N
1455253155.5,286046997.3,N
1455253175.3,286046995.3,N
1455253195.1,286046995.6,N
1455249615.9,286047001.3,N
1455249635.7,286047004.2,N
1455249655.6,286047002.1,N
1455249675.4,286047002.7,N
1455249695.2,286047003.3,N
1455249715.0,286047002.9,N
1455249716.0,286047002.9,N
1455249735.8,286047001.9,N
1455249755.6,286047002.5,N
1455249775.4,286047003.2,N
1455249795.3,286047003.0,N
1455249815.1,286047004.1,N
1455249835.8,286047003.4,N
1455249855.7,286047000.9,N
1455249875.5,286046999.9,N
1455249895.3,286047003.9,N
1455249915.2,286047003.8,N
1455249935.9,286047003.7,N
1455249955.7,286047005.6,N
1455249975.6,286047002.5,N
1455249995.4,286047000.9,N
1455250015.2,286046998.1,N
1455250035.1,286046996.7,N
1455250036.0,286046996.7,N
1455250055.8,286046997.8,N
1455250075.6,286046998.6,N
1455250095.5,286046998.7,N
1455250115.3,286046996.7,N
1455250135.1,286046999.4,N
1455250155.8,286046995.3,N
1455250175.7,286046993.5,N
1455250195.5,286046994.5,N
1455250215.3,286046994.3,N
1455250235.2,286046993.4,N
1455250255.9,286046997.1,N
1455250275.7,286046997.2,N
1455250295.6,286046995.6,N
1455250315.4,286046993.4,N
1455250335.2,286046997.2,N
1455250355.1,286046995.1,N
1455250356.0,286046995.1,N
1455250375.8,286046997.5,N
1455250395.6,286046997.5,N
1455250415.5,286046999.0,N
1455250435.3,286046999.3,N
1455250455.1,286046997.6,N
1455250475.8,286047000.8,N
1455250495.7,286047000.3,N
1455250515.5,286046998.8,N
1455250535.3,286046999.6,N
1455250555.2,286047000.5,N
1455250575.9,286046998.2,N
1455250595.7,286046998.4,N
1455250615.6,286046999.6,N
1455250635.4,286046998.8,N
1455250655.2,286046998.3,N
1455250675.1,286047000.7,N
1455250676.0,286047000.7,N
1455250695.8,286046997.5,N
1455250715.6,286046996.7,N
1455250735.5,286046999.4,N
1455250755.3,286046996.0,N
1455250775.1,286046995.0,N
1455250795.8,286046998.6,N
1455250815.7,286047001.5,N
1455250835.5,286047005.0,N
1455250855.3,286047002.9,N
1455250875.2,286047001.7,N
1455250895.9,286047002.0,N
1455250915.7,286047000.0,N
1455250935.6,286047001.6,N
1455250955.4,286047003.1,N
1455250975.2,286047001.2,N
1455250995.1,286047002.4,N
1455250996.0,286047002.4,N
1455251015.8,286047000.4,N
1455251035.6,286047003.7,N
1455251055.5,286047003.2,N
1455251075.3,286047001.8,N
1455251095.1,286047000.3,N
1455251115.9,286047004.3,N
1455251135.7,286047000.4,N
1455251155.5,286046999.0,N
1455251175.3,286046997.0,N
1455251195.2,286047000.4,N
1455251215.0,286047002.8,N
1455251215.9,286047002.8,N
1455251235.7,286046998.2,N
1455251255.6,286047001.1,N
1455251275.4,286047002.6,N
1455251295.2,286046999.3,N
1455251315.1,286046999.3,N
1455251316.0,286046999.3,N
1455251335.8,286047001.2,N
1455251355.6,286047000.1,N
1455251375.5,286047002.9,N
1455251395.3,286047005.1,N
1455251415.1,286047005.8,Y
1455251435.9,286047003.2,P
1455251455.7,286047005.9,P
1455251475.5,286047004.7,N
1455251495.4,286047006.0,Y
1455251515.2,286047003.2,P
1455251535.0,286047002.4,P
1455251535.9,286047002.4,P
1455251555.8,286047000.0,N
1455251575.6,286047000.9,N
1455251595.4,286047001.0,N
1455251615.3,286047000.0,N
1455251635.1,286046998.1,N
1455251636.0,286046998.1,N
1455251655.8,286046995.0,N
1455251675.7,286046995.1,N
1455251695.5,286046994.2,N
1455251715.3,286046995.2,N
1455251735.1,286046993.6,N
1455251755.9,286046995.9,N
1455251775.7,286046994.4,N
1455251795.5,286046993.6,N
1455251815.4,286046995.3,N
1455251835.2,286046999.6,N
1455251855.0,286047001.0,N
1455251855.9,286047001.0,N
1455251875.8,286046999.2,N
1455251895.6,286046997.0,N
1455251915.4,286046998.4,N
1455251935.3,286046998.4,N
1455251955.1,286046997.2,N
1455251956.0,286046997.2,N
1455251975.8,286046995.6,N
1455251995.7,286046996.4,N
1455252015.5,286046995.5,N
1455252035.3,286046993.4,N
1455252055.1,286046992.5,N
1455252075.9,286046993.6,N
1455252095.7,286046993.7,N
1455252115.6,286046992.1,Y
1455252135.4,286046996.1,P
1455252155.2,286046992.2,P
1455252175.0,286046993.2,P
1455252176.0,286046993.2,Y
1455252195.8,286046996.6,P
1455252215.6,286046998.0,N
1455252235.4,286046995.6,P
1455252255.3,286046995.6,Y
1455252275.1,286047001.2,P
1455252295.9,286047002.8,N
1455252315.7,286046999.7,N
1455252335.5,286047003.9,N
1455252355.4,286047009.0,Y
1455252375.2,286047007.8,P
1455252395.0,286047012.2,P
1455252395.9,286047012.2,N
1455252415.8,286047013.9,N
1455252435.6,286047014.7,Y
1455252455.4,286047007.3,P
1455252475.3,286047007.3,P
1455252495.1,286047008.1,P
1455252496.0,286047008.1,Y
1455252515.8,286046999.8,P
1455252535.7,286047000.3,N
1455252555.5,286047002.6,N
1455252575.3,286047000.0,N
1455252595.2,286047000.2,N
1455252615.9,286046999.7,N
1455252635.7,286047000.2,N
1455252655.5,286047000.8,N
1455252675.4,286047000.7,N
1455252695.2,286046998.7,N
1455252715.0,286047000.6,N
1455252715.9,286047000.6,N
1455252735.8,286047032.5,Y
1455252755.6,286047031.0,P
1455252775.4,286047020.7,N
1455252795.3,286047017.3,N
1455252815.1,286047014.9,N
1455252835.8,286047013.6,N
1455252855.7,286047010.6,N
1455252875.5,286047008.9,N
1455252895.3,286047033.1,Y
1455252915.2,286047006.6,P
1455252935.9,286046999.5,N
1455252955.7,286046997.8,N
1455252975.6,286046991.9,N
1455252995.4,286046991.5,N
1455253015.2,286046990.5,N
1455253035.1,286046988.8,N
1455253036.0,286046988.8,N
1455253055.8,286046991.5,N
1455253075.6,286046987.0,N
1455253095.5,286046984.3,N
1455253115.3,286046981.4,N
1455253135.1,286046977.8,N
1455253155.8,286046978.8,N
1455253175.7,286046978.6,N
1455253195.5,286046974.2,N
